Regional Weather Roundup
Issued by NWS

Home | Current Version | Previous Version | Graphics & Text | Print | Product List | Glossary On
Versions: 1 2 3 4 5 6 7 8 9 10 11 12 13 14 15 16 17 18 19 20 21 22 23 24 25 26 27 28 29 30 31 32 33 34 35 36 37 38 39 40 41 42 43 44 45 46 47 48 49 50
000
ASUS43 KIND 302359
RWRIN

WEATHER ROUNDUP FOR INDIANA
NATIONAL WEATHER SERVICE INDIANAPOLIS IN
700 PM EST FRI JAN 30 2015

NOTE: "FAIR" INDICATES FEW OR NO CLOUDS BELOW 12,000 FEET WITH NO
SIGNIFICANT WEATHER AND/OR OBSTRUCTIONS TO VISIBILITY.

* - STATION DOES NOT REPORT WEATHER SUCH AS PRECIPITATION OR FOG.

+ - STATION NOT QUALITY CONTROLLED BY THE NATIONAL WEATHER SERVICE.
    USE DATA WITH CAUTION...ESPECIALLY DEWPOINT AND RELATIVE
    HUMIDITY OBSERVATIONS.

INZ001>003-010>013-019-020-310100-
NORTHWEST INDIANA

CITY           SKY/WX    TMP DP  RH WIND       PRES   REMARKS
VALPARAISO     NOT AVBL

$$

LMZ046-743>745-310100-
SOUTHERN LAKE MICHIGAN

STATION/POSITION TIME  TEMP WIND        PRES
                       AIR  DIR/SP/G
                 (UTC) (F)  (DEG/KT/KT) (MB)
MICHIGAN CITY    2300   26  330/  1/  2   N/A

$$

INZ004-005-014>016-021>024-310100-
NORTH CENTRAL INDIANA

CITY           SKY/WX    TMP DP  RH WIND       PRES   REMARKS
ELKHART        CLOUDY    25  12  58 W3        30.43S
GOSHEN         CLOUDY    24  15  68 W3        30.43S
6HR MIN TEMP:  24; 6HR MAX TEMP:  25;

SOUTH BEND     CLEAR     22  13  68 CALM      30.43F
6HR MIN TEMP:  22; 6HR MAX TEMP:  27;


$$

INZ006>009-017-018-025>027-310100-
NORTHEAST INDIANA

CITY           SKY/WX    TMP DP  RH WIND       PRES   REMARKS
ANGOLA *+      CLEAR     19  10  68 W5        30.41S WCI  13
FORT WAYNE     CLOUDY    24  14  65 NW3       30.45S
6HR MIN TEMP:  24; 6HR MAX TEMP:  27;


$$

INZ028-029-035-036-043>045-051>053-310100-
WEST CENTRAL INDIANA

CITY           SKY/WX    TMP DP  RH WIND       PRES   REMARKS
GREENCASTLE +  CLEAR     28  12  50 CALM      30.45S
LAFAYETTE      CLEAR     26  16  65 CALM      30.45F
6HR MIN TEMP:  25; 6HR MAX TEMP:  32;

TERRE HAUTE    CLEAR     30  16  56 W5        30.46S WCI  25
6HR MIN TEMP:  30; 6HR MAX TEMP:  36;


$$

INZ030>032-037>040-046>048-054>057-064-065-310100-
CENTRAL INDIANA

CITY           SKY/WX    TMP DP  RH WIND       PRES   REMARKS
COLUMBUS       CLEAR     28  19  69 N3        30.46S
INDIANAPOLIS   CLEAR     25  15  66 N3        30.44S
6HR MIN TEMP:  24; 6HR MAX TEMP:  31;

-EAGLE CREEK   CLEAR     27  17  66 CALM      30.44S
6HR MIN TEMP:  27; 6HR MAX TEMP:  32;

KOKOMO *+      CLEAR     27  18  69 CALM      30.44S
6HR MIN TEMP:  27; 6HR MAX TEMP:  30;

MT COMFORT *+  CLEAR     25  12  58 NE3       30.44F
SHELBYVILLE    CLEAR     28  17  63 NE3       30.44S
6HR MIN TEMP:  28; 6HR MAX TEMP:  34;


$$

INZ033-034-041-042-049-050-058-059-310100-
EAST CENTRAL INDIANA

CITY           SKY/WX    TMP DP  RH WIND       PRES   REMARKS
MUNCIE         CLEAR     24  15  68 CALM      30.44S
6HR MIN TEMP:  24; 6HR MAX TEMP:  27;


$$

INZ060-061-067>069-081>083-085>088-310100-
SOUTHWEST INDIANA

CITY           SKY/WX    TMP DP  RH WIND       PRES   REMARKS
EVANSVILLE     CLEAR     35  20  54 CALM      30.48S
6HR MIN TEMP:  35; 6HR MAX TEMP:  42;

HUNTINGBURG *+ CLEAR     32  16  51 N5        30.47S WCI  27
6HR MIN TEMP:  32; 6HR MAX TEMP:  37;


$$

INZ062-063-066-070>080-084-089>092-310100-
SOUTH CENTRAL AND SOUTHEAST INDIANA

CITY           SKY/WX    TMP DP  RH WIND       PRES   REMARKS
BLOOMINGTON    CLEAR     27  17  66 CALM      30.44R
6HR MIN TEMP:  27; 6HR MAX TEMP:  36;

SEYMOUR +      CLEAR     30  18  59 CALM      30.46S

$$




USA.gov is the U.S. government's official web portal to all federal, state and local government web resources and services.